Regional Weather Roundup
Issued by NWS

Home | Current Version | Previous Version | Text Only | Print | Product List | Glossary Off
Versions: 1 2 3 4 5 6 7 8 9 10 11 12 13 14 15 16 17 18 19 20 21 22 23 24 25 26 27 28 29 30 31 32 33 34 35 36 37 38 39 40 41 42 43 44 45 46 47 48 49 50

000
ASUS45 KBOU 220207
RWRCO

WEATHER ROUNDUP FOR COLORADO
NATIONAL WEATHER SERVICE DENVER/BOULDER CO
700 PM MST TUE FEB 21 2017

NOTE: "FAIR" INDICATES FEW OR NO CLOUDS BELOW 12000 FEET WITH NO
SIGNIFICANT WEATHER AND/OR OBSTRUCTIONS TO VISIBILITY.

COZ001>005-013-030-031-220300-
...NORTHWEST COLORADO...

CITY           SKY/WX    TMP DP  RH WIND       PRES   REMARKS
CRAIG          FAIR      50  28  42 SW24G40   29.96F
HAYDEN         FAIR      46  21  36 SW8       29.98F
MEEKER         FAIR      48  32  53 S15G21    30.03S
MOUNT WERNER   NOT AVBL
STEAMBOAT SPGS FAIR      45  23  42 CALM      30.00S
WALDEN         NOT AVBL
$$

COZ006>008-011-220300-
...WEST CENTRAL VALLEYS...

CITY           SKY/WX    TMP DP  RH WIND       PRES   REMARKS
GRAND JUNCTION FAIR      55  36  48 SE10      30.05F
MONTROSE       FAIR      53  29  39 CALM      30.15R
EAGLE          CLEAR     52  27  37 SW21G28   30.07F
RIFLE          FAIR      51  35  54 W10       30.05S
DELTA          FAIR      59  31  35 CALM      30.12F
NUCLA          FAIR      54  32  43 S9        30.19F
$$

COZ017>023-064>068-220300-
...SOUTHWEST COLORADO...

CITY           SKY/WX    TMP DP  RH WIND       PRES   REMARKS
DURANGO        FAIR      46  35  65 NE5       30.25S
CORTEZ         FAIR      51  38  60 S8        30.22S
PAGOSA SPRINGS CLOUDY    44  28  55 CALM      30.30S
TELLURIDE      CLOUDY    43  23  45 S5        30.33R
WOLF CREEK PAS CLOUDY    27  27 100 S26G36    30.40F WCI  11
$$

COZ009-010-012-014-032>034-037-058>063-220300-
...CENTRAL COLORADO...

CITY           SKY/WX    TMP DP  RH WIND       PRES   REMARKS
ASPEN          FAIR      47  20  34 S10G21    30.12F
BUENA VISTA    CLOUDY    46  13  26 SW14      30.18F
COPPER MTN     FAIR      34  12  40 SW16      30.24F HAZE    WCI  23
BERTHOUD PASS  FAIR      25  14  63 W40G49    30.15F WCI   6
COTTONWOOD PAS CLOUDY    43   7  22 SW14G26   30.23F
GUNNISON       NOT AVBL
KREMMLING      FAIR      50  27  40 SW21G31   30.05F
LEADVILLE      MOCLDY    34  14  43 S8        30.18F WCI  27
MONARCH PASS   CLOUDY    27  19  74 SW26G41   30.41S WCI  11
SALIDA         CLOUDY    51  14  23 SW3       30.26F
SUNLIGHT       NOT AVBL
WILKERSON PASS MOCLDY    32  12  43 SW14G23   30.28S WCI  22
$$

COZ069>075-220300-
...SAN LUIS VALLEY/SANGRE DE CRISTO MOUNTAINS...

CITY           SKY/WX    TMP DP  RH WIND       PRES   REMARKS
ALAMOSA        FAIR      45  26  47 SW14      30.23R
LA VETA PASS   FAIR      37  16  41 N12G25    30.31R
SAGUACHE       FAIR      41  30  65 NW7       30.22R
$$

COZ035-036-038>040-220300-
...NORTHERN COLORADO FRONT RANGE...

CITY           SKY/WX    TMP DP  RH WIND       PRES   REMARKS
DENVER INTL AP MOCLDY    61   1   9 SW15      29.96F
DMNS CITY PARK   N/A     61   6  11 SE9       29.97F
AURORA         MOCLDY    55  11  17 S14       30.00F
FRONT RANGE AP MOCLDY    59   9  13 S13G20    29.99S
ERIE MUNI ARPT FAIR      57   4  12 S15       29.93F
BOULDER MUN AP FAIR      61  12  15 S9        29.93F
CENTENNIAL     MOCLDY    54  10  17 S9        30.02F
BROOMFIELD     PTCLDY    61   7  11 S12       29.98F
FORT COLLINS   FAIR      60  17  18 SW16      29.91F
LONGMONT       FAIR      61  11  14 SW9       29.94F
$$

COZ041-046-047-076>085-087-088-220300-
...PIKES PEAK/PALMER DIVIDE AND SOUTHERN FOOTHILLS...

CITY           SKY/WX    TMP DP  RH WIND       PRES   REMARKS
COLO. SPRINGS  FAIR      58   9  14 W14G24    30.09R
A. F. ACADEMY  FAIR      57   8  14 SW16      30.09R
SCHRIEVER AFB  FAIR      54  10  17 W15       30.09R
ELLICOTT       FAIR     N/A N/A N/A W15       30.06R
FALCON         FAIR      54   4  13 SW12      30.12R
FORT CARSON    FAIR      58  13  16 W22G30    30.07R
LIMON          FAIR      56   6  13 W12       30.01R
MONUMENT HILL  FAIR      52   9  17 SW30G36   30.10F
TRINIDAD       FAIR      58   7  13 SW6       30.09R
$$

COZ042>045-048>051-090-091-220300-
...NORTHEAST COLORADO...

CITY           SKY/WX    TMP DP  RH WIND       PRES   REMARKS
GREELEY ARPT   FAIR      63  10  12 SW20G30   29.90F
AKRON          FAIR      55  15  20 W14       29.91F
BURLINGTON     FAIR      54  20  26 S13       29.93F
WRAY           NOT AVBL
STERLING       FAIR      61  19  20 W16       29.85F
HOLYOKE        FAIR      48  16  27 SW7       29.88S
FORT MORGAN    FAIR      50  15  24 W9        29.92F
$$

COZ086-089-092>099-220300-
...SOUTHEAST COLORADO...

CITY           SKY/WX    TMP DP  RH WIND       PRES   REMARKS
PUEBLO         FAIR      58  12  16 NW13      30.00R
LA JUNTA       FAIR      57  10  15 SW12      29.98R
LAMAR          FAIR      55  16  21 S14       29.93R
SPRINGFIELD      N/A     51  19  28 S8        30.00R
$$



USA.gov is the U.S. government's official web portal to all federal, state and local government web resources and services.